Regional Weather Roundup
Issued by NWS Little Rock, AR

Home | Current Version | Previous Version | Text Only | Print | Product List | Glossary On
Versions: 1 2 3 4 5 6 7 8 9 10 11 12 13 14 15 16 17 18 19 20 21 22 23 24 25 26 27 28 29 30 31 32 33 34 35 36 37 38 39 40 41 42 43 44 45 46 47 48 49 50
167
ASUS44 KLZK 111405
RWRLZK

WEATHER ROUNDUP FOR ARKANSAS
NATIONAL WEATHER SERVICE LITTLE ROCK AR
800 AM CST SUN DEC 11 2016

NOTE: "FAIR" INDICATES FEW OR NO CLOUDS BELOW 12,000 FEET WITH NO
SIGNIFICANT WEATHER AND/OR OBSTRUCTIONS TO VISIBILITY.

ARZ001-003-010-029-111500-
NORTHWEST ARKANSAS

CITY           SKY/WX    TMP DP  RH WIND       PRES   REMARKS
FAYETTEVILLE   CLOUDY    46  34  62 S13G25    29.86F
FORT SMITH     CLOUDY    51  37  58 SE6       29.93F
HARRISON       CLOUDY    45  30  55 S14G22    29.90F
BENTONVILLE    CLOUDY    48  34  57 S15G23    29.84F
ROGERS         CLOUDY    48  38  68 S16G35    29.84F
SILOAM SPGS    CLOUDY    48  36  61 S26G35    29.83F
HIGHFILL       LGT RAIN  49  38  65 S24G37    29.82F
SPRINGDALE     CLOUDY    48  37  66 S17G29    29.86F
$$

ARZ004-005-016-111500-
NORTH CENTRAL ARKANSAS

CITY           SKY/WX    TMP DP  RH WIND       PRES   REMARKS
BATESVILLE     CLOUDY    45  23  42 SE9       30.07S
FLIPPIN        CLOUDY    45  23  42 SE8       29.93F
MTN HOME       CLOUDY    43  25  49 S9G20     29.96F
$$

ARZ040-041-111500-
WEST CENTRAL ARKANSAS

CITY           SKY/WX    TMP DP  RH WIND       PRES   REMARKS
MENA           CLOUDY    50  41  71 S15G21    29.98R
MOUNT IDA      CLOUDY    46  30  53 VRB3      29.99F
$$

ARZ009-017-025-026-028-111500-
NORTHEAST ARKANSAS

CITY           SKY/WX    TMP DP  RH WIND       PRES   REMARKS
CORNING        MIX PCPN  41  27  56 S13       30.08F
JONESBORO      CLOUDY    41  26  55 S15       30.10F
NEWPORT        CLOUDY    42  28  57 S14         N/A
WALNUT RIDGE   CLOUDY    41  25  52 S15G21    30.07F
BLYTHEVILLE    CLOUDY    43  21  41 S15       30.15S
$$

ARZ022-023-033-042-044-111500-
CENTRAL ARKANSAS

CITY           SKY/WX    TMP DP  RH WIND       PRES   REMARKS
LITTLE ROCK    LGT RAIN  43  33  68 S7        30.08F
N LITTLE ROCK    N/A     43  31  63 S6        30.09S
JACKSONVILLE   CLOUDY    45  28  52 S6        30.05F
SEARCY         CLOUDY    45  28  51 S15       30.09F
HOT SPRINGS    LGT RAIN  45  32  60 SE6       30.05F
RUSSELLVILLE   CLOUDY    47  27  45 VRB3      30.02F
CLINTON        CLOUDY    45  27  49 S3        30.04S
$$

ARZ036-111500-
EAST ARKANSAS

CITY           SKY/WX    TMP DP  RH WIND       PRES   REMARKS
WEST MEMPHIS   CLOUDY    43  20  39 S16       30.15F
$$

ARZ050-053-066-070-073-111500-
SOUTHWEST ARKANSAS

CITY           SKY/WX    TMP DP  RH WIND       PRES   REMARKS
ARKADELPHIA    CLOUDY    46  33  60 S3        30.08S
CAMDEN         MOCLDY    48  23  37 S9        30.09S
TEXARKANA      CLOUDY    50  32  50 S14       30.03F
EL DORADO      CLOUDY    48  26  42 S10       30.10F
DE QUEEN       CLOUDY    49  36  61 S6        30.00F
$$

ARZ056-057-069-111500-
SOUTHEAST ARKANSAS

CITY           SKY/WX    TMP DP  RH WIND       PRES   REMARKS
PINE BLUFF     CLOUDY    47  25  42 S12       30.10F
STUTTGART      CLOUDY    45  25  45 S17       30.11S
MONTICELLO     CLOUDY    46  25  43 S9        30.13F

$$






USA.gov is the U.S. government's official web portal to all federal, state and local government web resources and services.